TimeMST,TemperatureF,Dew PointF,Humidity,Sea Level PressureIn,VisibilityMPH,Wind Direction,Wind SpeedMPH,Gust SpeedMPH,PrecipitationIn,Events,Conditions,WindDirDegrees,DateUTC
12:57 AM,21.9,17.1,82,30.40,10.0,Calm,Calm,-,N/A,,Clear,0,2013-12-17 07:57:00
1:57 AM,21.0,16.0,81,30.40,10.0,Calm,Calm,-,N/A,,Clear,0,2013-12-17 08:57:00
2:57 AM,19.9,15.1,81,30.40,10.0,Calm,Calm,-,N/A,,Clear,0,2013-12-17 09:57:00
3:57 AM,19.0,14.0,81,30.41,10.0,Calm,Calm,-,N/A,,Clear,0,2013-12-17 10:57:00
4:57 AM,19.0,12.9,77,30.43,10.0,Calm,Calm,-,N/A,,Clear,0,2013-12-17 11:57:00
5:57 AM,18.0,12.9,81,30.47,10.0,Calm,Calm,-,N/A,,Clear,0,2013-12-17 12:57:00
6:57 AM,17.1,12.9,84,30.51,10.0,Calm,Calm,-,N/A,,Clear,0,2013-12-17 13:57:00
7:57 AM,18.0,12.9,81,30.54,10.0,NNE,3.5,-,N/A,,Clear,30,2013-12-17 14:57:00
8:57 AM,26.1,19.0,75,30.53,10.0,Calm,Calm,-,N/A,,Clear,0,2013-12-17 15:57:00
9:57 AM,41.0,19.9,43,30.46,10.0,Variable,3.5,-,N/A,,Clear,0,2013-12-17 16:57:00
10:57 AM,46.0,17.1,31,30.43,10.0,East,10.4,-,N/A,,Clear,90,2013-12-17 17:57:00
11:57 AM,48.0,16.0,28,30.40,10.0,ENE,11.5,-,N/A,,Clear,70,2013-12-17 18:57:00
12:57 PM,48.9,18.0,29,30.36,10.0,East,8.1,-,N/A,,Clear,90,2013-12-17 19:57:00
1:57 PM,48.9,21.0,33,30.34,10.0,NE,11.5,-,N/A,,Clear,50,2013-12-17 20:57:00
2:57 PM,48.9,19.0,31,30.33,10.0,East,6.9,-,N/A,,Clear,100,2013-12-17 21:57:00
3:57 PM,46.9,21.0,36,30.35,10.0,NE,8.1,-,N/A,,Clear,40,2013-12-17 22:57:00
4:57 PM,45.0,21.9,40,30.35,10.0,ENE,4.6,-,N/A,,Clear,70,2013-12-17 23:57:00
5:57 PM,36.0,21.0,55,30.40,10.0,NNE,3.5,-,N/A,,Clear,30,2013-12-18 00:57:00
6:57 PM,32.0,21.0,64,30.42,10.0,Calm,Calm,-,N/A,,Clear,0,2013-12-18 01:57:00
7:57 PM,30.9,21.9,69,30.42,10.0,Calm,Calm,-,N/A,,Clear,0,2013-12-18 02:57:00
8:57 PM,30.0,23.0,75,30.38,10.0,Calm,Calm,-,N/A,,Clear,0,2013-12-18 03:57:00
9:57 PM,28.9,21.9,75,30.31,10.0,NE,3.5,-,N/A,,Clear,40,2013-12-18 04:57:00
10:57 PM,30.0,21.9,72,30.27,10.0,Calm,Calm,-,N/A,,Clear,0,2013-12-18 05:57:00
11:57 PM,30.0,21.9,72,30.24,10.0,Calm,Calm,-,N/A,,Clear,0,2013-12-18 06:57:00